« Back
NWS Peachtree City, Ga » Text Product » GA Regional Weather Roundup


Printer-friendly Version
Current Version              Previous Versions:   1  2  3  4  5  6  7  8  9  

Regional Weather Roundup

044
ASUS42 KFFC 200803
RWRGA
WEATHER ROUNDUP FOR GEORGIA
NATIONAL WEATHER SERVICE PEACHTREE CITY GA
400 AM EDT SUN APR 20 2014

NOTE: "FAIR" INDICATES FEW OR NO CLOUDS BELOW 12,000 FEET WITH NO
SIGNIFICANT WEATHER AND/OR OBSTRUCTIONS TO VISIBILITY.

* = USE WITH CAUTION. THE STATIONS MARKED WITH AN ASTERISK MAY NOT
REPORT WEATHER SUCH AS PRECIPITATION, FOG, OR THUNDER AND ARE NOT
QUALITY CONTROLLED BY NWS.

THE REMARK "TC" DENOTES TEMPERATURE READING IN DEGREES CELSIUS.

GAZ001>058-200900-
NORTH GEORGIA

CITY           SKY/WX    TMP DP  RH WIND       PRES   REMARKS
ATLANTA        PTCLDY    53  42  66 NE15      30.16R
ATHENS         CLOUDY    53  43  68 E14G28    30.17F
CHAMBLEE       CLEAR     53  41  63 E8G17     30.16S
PEACHTREE CITY CLOUDY    53  44  71 VRB3      30.16S
ROME           CLEAR     49  47  93 CALM      30.18R
WEST ATLANTA   MOCLDY    54  42  64 NE10      30.16S
GAINESVILLE    MOCLDY    52  42  69 E9        30.18F
CARTERSVILLE   CLEAR     47  44  90 CALM      30.18S


CITY           SKY/WX    TMP DP  RH WIND       PRES   REMARKS
DALTON*        CLEAR     46  46 100 CALM      30.18R FOG
MARIETTA       MOCLDY    54  42  64 E8G17     30.17S
$$

GAZ059>098-102>109-200900-
CENTRAL GEORGIA

CITY           SKY/WX    TMP DP  RH WIND       PRES   REMARKS
AUGUSTA-BUSH   CLOUDY    50  47  89 N9        30.14R
AUGUSTA-DANIEL CLOUDY    51  47  86 N5        30.14R
COLUMBUS       CLOUDY    54  46  74 E9G21     30.13F
MACON          CLOUDY    52  48  86 NE10      30.13S
ROBINS AFB     CLOUDY    53  48  84 N8        30.13R


CITY           SKY/WX    TMP DP  RH WIND       PRES   REMARKS
LAGRANGE*      CLOUDY    55  48  77 E5        30.15S
SYLVANIA*      CLOUDY    53  50  90 N14       30.09S FOG
MILLEDGEVILLE* CLOUDY    54  45  71 NE7       30.14S
$$

GAZ099>101-110>166-200900-
SOUTH GEORGIA

CITY           SKY/WX    TMP DP  RH WIND       PRES   REMARKS
SAVANNAH       CLOUDY    54  50  86 N8        30.05S
VALDOSTA       CLOUDY    58  53  84 N12       30.05S
ALMA           CLOUDY    53  51  93 N9        30.06R
ST SIMONS      LGT RAIN  55  54  96 N9        30.02S
FT STEWART     CLOUDY    54  54 100 N8        30.03F
ALBANY         CLOUDY    54  52  93 NE10      30.11S
HUNTER AFB     CLOUDY    54  52  91 VRB3      30.03F
MOODY AFB      LGT RAIN  55  55 100 N8        30.04S
BRUNSWICK      CLOUDY    54  54 100 N6        30.03F


CITY           SKY/WX    TMP DP  RH WIND       PRES   REMARKS
BAINBRIDGE*    CLOUDY    59  55  88 N10       30.07F
MOULTRIE*      CLOUDY    55  54  94 N5        30.07F
VIDALIA*       CLOUDY    54  52  94 N9G22     30.07S
DOUGLAS*       CLOUDY    54  52  94 N10G17    30.08S
$$



USA.gov is the U.S. government's official web portal to all federal, state and local government web resources and services.